Location: Kimberly
(42.5380°N, 114.3640°W)
Time: 11:37:24
(UTC-06:00)

X-37B - Pass Details

Date: 10 August 2021
Orbit: 381 x 393 km, 45.0° (Epoch: 29 August)

Event Time Altitude Azimuth Distance (km) Brightness Sun altitude
Exits shadow 06:04:24 - 286° (WNW) 2,047 3.8 -6.7°
Reaches altitude 10° 06:06:00 10° 282° (WNW) 1,394 2.9 -6.4°
Maximum altitude 06:09:04 55° 204° (SSW) 464 0.7 -5.9°
Drops below altitude 10° 06:12:08 10° 126° (SE) 1,389 3.8 -5.4°
Sets 06:14:12 0° 121° (ESE) 2,240 4.9 -5.1°
